utc_time,unix_time,temp,cond,salinity,tds,chla_rfu,chla_ugl,bga_rfu,bga_ugl,odo,sat,nitrate_um,nitrogen_mg,stage,area,discharge,total_discharge
2021-10-01 00:00:01+00:00,1633046401,21.61,,,,,,,,,,25.4966666666667,0.357133333333333,,1.608,0.0649,0.1298
2021-10-01 00:20:01+00:00,1633047601,21.55,,,,,,,,,,26.0666666666667,0.365133333333333,,1.6096,0.0544,0.1088
2021-10-01 00:40:01+00:00,1633048801,21.21,,,,,,,,,,34.92,0.489133333333333,,1.6112,0.0756,0.1512
2021-10-01 01:00:02+00:00,1633050002,21.73,,,,,,,,,,40.9666666666667,0.573833333333333,,1.6144,0.0925,0.185
2021-10-01 01:20:02+00:00,1633051202,21.89,,,,,,,,,,50.3166666666667,0.704766666666667,,1.6176,0.0729,0.1458
2021-10-01 01:40:01+00:00,1633052401,21.84,,,,,,,,,,55.4733333333333,0.777033333333333,,1.6256,0.0947,0.1894
2021-10-01 02:00:02+00:00,1633053602,21.9,,,,,,,,,,59.48,0.833133333333333,,1.6272,0.1024,0.2048
2021-10-01 02:20:02+00:00,1633054802,21.85,,,,,,,,,,64.4933333333333,0.903333333333333,,1.6304,0.0934,0.1868
2021-10-01 02:40:02+00:00,1633056002,21.8,,,,,,,,,,72.82,1.0199,,1.6304,0.0536,0.1072
2021-10-01 03:00:02+00:00,1633057202,21.71,,,,,,,,,,76.0933333333333,1.06583333333333,,1.6304,0.0505,0.101
2021-10-01 03:20:01+00:00,1633058401,21.64,,,,,,,,,,79.7466666666667,1.11706666666667,,1.6336,0.046,0.092
2021-10-01 03:40:01+00:00,1633059601,21.54,,,,,,,,,,81.89,1.14703333333333,,1.6304,0.072,0.144
2021-10-01 04:00:02+00:00,1633060802,21.45,,,,,,,,,,82.86,1.1606,,1.6304,0.0475,0.095
2021-10-01 04:20:02+00:00,1633062002,21.52,,,,,,,,,,85.6133333333333,1.19923333333333,,1.6336,0.0383,0.0766
2021-10-01 04:40:02+00:00,1633063202,21.54,,,,,,,,,,87.7066666666666,1.22853333333333,,1.632,0.0245,0.049
2021-10-01 05:00:02+00:00,1633064402,21.56,,,,,,,,,,87.5033333333333,1.22563333333333,,1.6336,-0.0092,-0.0184
2021-10-01 05:20:02+00:00,1633065602,21.55,,,,,,,,,,85.4533333333333,1.1969,,1.4944,-0.0433,-0.0866
2021-10-01 05:40:02+00:00,1633066802,21.52,,,,,,,,,,81.4033333333333,1.14016666666667,,1.4992,0.0126,0.0252
2021-10-01 06:00:01+00:00,1633068001,21.49,,,,,,,,,,80.83,1.13216666666667,,1.5088,-0.0212,-0.0424
2021-10-01 06:20:01+00:00,1633069201,21.47,,,,,,,,,,76.6733333333333,1.07393333333333,,1.5296,0.0501,0.1002
2021-10-01 06:40:02+00:00,1633070402,21.45,,,,,,,,,,72.9066666666667,1.02113333333333,,1.5104,0.0311,0.0622
2021-10-01 07:00:01+00:00,1633071601,21.43,,,,,,,,,,67.5933333333333,0.946733333333333,,1.4992,-0.0126,-0.0252
2021-10-01 07:20:02+00:00,1633072802,20.59,,,,,,,,,,29.5466666666667,0.4139,,1.5952,-0.4913,-0.9826
2021-10-01 07:40:01+00:00,1633074001,19.4,,,,,,,,,,27.8433333333333,0.390033333333333,,1.568,-0.5429,-1.0858
2021-10-01 08:00:02+00:00,1633075202,19.79,,,,,,,,,,11.9466666666667,0.1673,,1.5344,-0.5854,-1.1708
2021-10-01 08:20:01+00:00,1633076401,19.98,,,,,,,,,,8.99,0.1259,,1.512,-0.6233,-1.2466
2021-10-01 08:40:02+00:00,1633077602,19.96,,,,,,,,,,7.96,0.111466666666667,,1.4912,-0.6185,-1.237
2021-10-01 09:00:02+00:00,1633078802,19.81,,,,,,,,,,8.27,0.115833333333333,,1.4736,-0.6371,-1.2742
2021-10-01 09:20:02+00:00,1633080002,19.71,,,,,,,,,,7.61,0.106633333333333,,1.456,-0.5815,-1.163
2021-10-01 09:40:02+00:00,1633081202,19.63,,,,,,,,,,9.13333333333333,0.127933333333333,,1.4512,-0.5781,-1.1562
2021-10-01 10:00:01+00:00,1633082401,19.51,,,,,,,,,,8.38,0.1174,,1.4512,-0.479,-0.958
2021-10-01 10:20:01+00:00,1633083601,19.36,,,,,,,,,,11.7233333333333,0.1642,,1.4704,-0.3302,-0.6604
2021-10-01 10:40:01+00:00,1633084801,19.25,,,,,,,,,,10.64,0.149,,1.496,-0.091,-0.182
2021-10-01 11:00:01+00:00,1633086001,19.19,,,,,,,,,,16.3833333333333,0.229466666666667,,1.5088,-0.0636,-0.1272
2021-10-01 11:20:02+00:00,1633087202,19.17,,,,,,,,,,13.1733333333333,0.1845,,1.5152,-0.0283,-0.0566
2021-10-01 11:40:01+00:00,1633088401,19.15,,,,,,,,,,18.9233333333333,0.265066666666667,,1.5248,-0.0128,-0.0256
2021-10-01 12:00:01+00:00,1633089601,19.15,,,,,,,,,,17.3866666666667,0.243533333333333,,1.528,-0.01,-0.02
2021-10-01 12:20:02+00:00,1633090802,19.15,,,,,,,,,,12.85,0.18,,1.5296,0.0587,0.1174
2021-10-01 12:40:01+00:00,1633092001,19.15,,,,,,,,,,11.86,0.166133333333333,,1.5296,0.02,0.04
2021-10-01 13:00:02+00:00,1633093202,19.13,,,,,,,,,,11.5233333333333,0.1614,,1.5296,0.0028,0.0056
2021-10-01 13:20:02+00:00,1633094402,19.13,,,,,,,,,,11.1466666666667,0.1561,,1.5312,0.043,0.086
2021-10-01 13:40:01+00:00,1633095601,19.11,,,,,,,,,,10.0833333333333,0.1412,,1.5328,0.0273,0.0546
2021-10-01 14:00:01+00:00,1633096801,19.11,,,,,,,,,,9.39333333333333,0.131566666666667,,1.5216,0.0299,0.0598
2021-10-01 14:20:01+00:00,1633098001,19.11,,,,,,,,,,8.13,0.1139,,1.5392,0.036,0.072
2021-10-01 14:40:01+00:00,1633099201,19.13,,,,,,,,,,8.71666666666667,0.122066666666667,,1.5408,0.0101,0.0202
2021-10-01 15:00:02+00:00,1633100402,19.14,,,,,,,,,,8.67666666666667,0.121533333333333,,1.544,0.0535,0.107
2021-10-01 15:20:01+00:00,1633101601,19.17,,,,,,,,,,16.65,0.233233333333333,,1.544,0.0593,0.1186
2021-10-01 15:40:02+00:00,1633102802,19.17,,,,,,,,,,22.9566666666667,0.321566666666667,,1.5456,0.0884,0.1768
2021-10-01 16:00:02+00:00,1633104002,19.14,,,,,,,,,,34.9633333333333,0.489733333333333,,1.5456,0.0304,0.0608
2021-10-01 16:20:01+00:00,1633105201,19.15,,,,,,,,,,33.72,0.472333333333333,,1.5472,0.013,0.026
2021-10-01 16:40:01+00:00,1633106401,19.13,,,,,,,,,,34.3633333333333,0.481333333333333,,1.5504,0.0232,0.0464
2021-10-01 17:00:02+00:00,1633107602,19.13,,,,,,,,,,26.77,0.374933333333333,,1.5536,0.0582,0.1164
2021-10-01 17:20:02+00:00,1633108802,19.27,,,,,,,,,,10.7633333333333,0.150766666666667,,1.5504,0.0479,0.0958
2021-10-01 17:40:01+00:00,1633110001,19.25,,,,,,,,,,10.34,0.144833333333333,,1.5504,0.0203,0.0406
2021-10-01 18:00:02+00:00,1633111202,19.36,,,,,,,,,,12.3,0.172266666666667,,1.552,0.064,0.128
2021-10-01 18:20:01+00:00,1633112401,19.55,,,,,,,,,,14.49,0.203,,1.552,0.064,0.128
2021-10-01 18:40:01+00:00,1633113601,19.65,,,,,,,,,,18.31,0.256466666666667,,1.5488,0.0653,0.1306
2021-10-01 19:00:01+00:00,1633114801,19.76,,,,,,,,,,23.2366666666667,0.3255,,1.5472,0.0798,0.1596
2021-10-01 19:20:01+00:00,1633116001,19.89,,,,,,,,,,27.5366666666667,0.385733333333333,,1.5472,0.0406,0.0812
2021-10-01 19:40:02+00:00,1633117202,20.26,,,,,,,,,,30.0933333333333,0.4215,,1.5456,0.013,0.026
2021-10-01 20:00:01+00:00,1633118401,20.4,,,,,,,,,,30.9366666666667,0.4333,,1.5424,0.0564,0.1128
2021-10-01 20:20:01+00:00,1633119601,20.59,,,,,,,,,,33.1833333333333,0.464766666666667,,1.544,0.0028,0.0056
2021-10-01 20:40:01+00:00,1633120801,21.12,,,,,,,,,,34.6266666666667,0.484966666666667,,1.544,0.0086,0.0172
2021-10-01 21:00:02+00:00,1633122002,21.26,,,,,,,,,,37.4266666666667,0.5242,,1.544,0,0
2021-10-01 21:20:02+00:00,1633123202,21.35,,,,,,,,,,35.54,0.497766666666667,,1.544,-0.0144,-0.0288
2021-10-01 21:40:01+00:00,1633124401,21.35,,,,,,,,,,34.9633333333333,0.489666666666667,,1.544,0.0043,0.0086
2021-10-01 22:00:01+00:00,1633125601,21.68,,,,,,,,,,36.84,0.516,,1.5424,0,0
2021-10-01 22:20:02+00:00,1633126802,21.58,,,,,,,,,,38.9833333333333,0.546033333333333,,1.544,0.0217,0.0434
2021-10-01 22:40:02+00:00,1633128002,21.6,,,,,,,,,,35.75,0.5007,,1.5472,-0.0043,-0.0086
2021-10-01 23:00:01+00:00,1633129201,21.52,,,,,,,,,,36.6166666666667,0.512866666666666,,1.5472,0.0464,0.0928
2021-10-01 23:20:01+00:00,1633130401,21.44,,,,,,,,,,38.4833333333333,0.539066666666667,,1.5472,0.042,0.084
2021-10-01 23:40:01+00:00,1633131601,21.47,,,,,,,,,,39.4733333333333,0.5529,,1.5504,0.0261,0.0522
2021-10-02 00:00:01+00:00,1633132801,21.44,,,,,,,,,,36.2133333333333,0.507233333333333,,1.552,0.0334,0.0668
2021-10-02 00:20:02+00:00,1633134002,21.33,,,,,,,,,,41.7633333333333,0.585033333333333,,1.5536,0.0918,0.1836
2021-10-02 00:40:01+00:00,1633135201,21.36,,,,,,,,,,45.22,0.633333333333333,,1.5551,0.0787,0.1574
2021-10-02 01:00:02+00:00,1633136402,21.03,,,,,,,,,,49.13,0.688166666666666,,1.5584,0.0979,0.1958
2021-10-02 01:20:01+00:00,1633137601,21.08,,,,,,,,,,54.4233333333333,0.762333333333333,,1.5664,0.1117,0.2234
2021-10-02 01:40:02+00:00,1633138802,22.04,,,,,,,,,,55.69,0.780033333333333,,1.5712,0.1017,0.2034
2021-10-02 02:00:01+00:00,1633140001,21.86,,,,,,,,,,54.8433333333333,0.768133333333333,,1.5744,0.0635,0.127
2021-10-02 02:20:01+00:00,1633141201,21.94,,,,,,,,,,53.63,0.7512,,1.576,0.1124,0.2248
2021-10-02 02:40:01+00:00,1633142401,22.14,,,,,,,,,,52.62,0.737033333333333,,1.5808,0.1469,0.2938
2021-10-02 03:00:02+00:00,1633143602,22.12,,,,,,,,,,53.6433333333333,0.751333333333333,,1.5872,0.0819,0.1638
2021-10-02 03:20:02+00:00,1633144802,22.03,,,,,,,,,,52.01,0.728466666666667,,1.5888,0.1029,0.2058
2021-10-02 03:40:02+00:00,1633146002,21.88,,,,,,,,,,54.2966666666667,0.760533333333333,,1.5888,0.0745,0.149
2021-10-02 04:00:02+00:00,1633147202,21.79,,,,,,,,,,54.99,0.770233333333333,,1.5888,0.0641,0.1282
2021-10-02 04:20:02+00:00,1633148402,21.74,,,,,,,,,,56.9133333333333,0.7972,,1.5888,0.0566,0.1132
2021-10-02 04:40:02+00:00,1633149602,21.71,,,,,,,,,,58.0433333333333,0.813066666666667,,1.5888,0.0686,0.1372
2021-10-02 05:00:02+00:00,1633150802,21.99,,,,,,,,,,61.6166666666667,0.863033333333333,,1.5888,0.0164,0.0328
2021-10-02 05:20:01+00:00,1633152001,22.07,,,,,,,,,,65.3866666666667,0.9158,,1.5904,0.0268,0.0536
2021-10-02 05:40:02+00:00,1633153202,22.07,,,,,,,,,,69.3866666666667,0.9719,,1.5904,0.0104,0.0208
2021-10-02 06:00:01+00:00,1633154401,22.09,,,,,,,,,,70.9166666666667,0.993333333333334,,1.5904,0.0044,0.0088
2021-10-02 06:20:01+00:00,1633155601,22.06,,,,,,,,,,70.9033333333333,0.9931,,1.5888,0.0104,0.0208
2021-10-02 06:40:01+00:00,1633156801,22.04,,,,,,,,,,68.7,0.9623,,1.5888,-0.0104,-0.0208
2021-10-02 07:00:02+00:00,1633158002,21.94,,,,,,,,,,70.11,0.981966666666667,,1.592,-0.0089,-0.0178
2021-10-02 07:20:02+00:00,1633159202,21.89,,,,,,,,,,70.04,0.981066666666667,,1.5904,-0.0029,-0.0058
2021-10-02 07:40:02+00:00,1633160402,21.83,,,,,,,,,,68.1866666666667,0.9551,,1.5904,0.0014,0.0028
2021-10-02 08:00:01+00:00,1633161601,21.7,,,,,,,,,,50.07,0.701366666666666,,1.5728,-0.2155,-0.431
2021-10-02 08:20:01+00:00,1633162801,20.07,,,,,,,,,,24.2233333333333,0.3393,,1.5328,-0.4914,-0.9828
2021-10-02 08:40:02+00:00,1633164002,20.12,,,,,,,,,,14.8133333333333,0.2075,,1.504,-0.5804,-1.1608
2021-10-02 09:00:02+00:00,1633165202,20.52,,,,,,,,,,11.9233333333333,0.167,,1.4752,-0.6129,-1.2258
2021-10-02 09:20:02+00:00,1633166402,20.51,,,,,,,,,,10.6366666666667,0.149,,1.4528,-0.6127,-1.2254
2021-10-02 09:40:02+00:00,1633167602,20.41,,,,,,,,,,10.1133333333333,0.141633333333333,,1.4336,-0.5989,-1.1978
2021-10-02 10:00:01+00:00,1633168801,20.35,,,,,,,,,,9.73333333333333,0.136366666666667,,1.4176,-0.5562,-1.1124
2021-10-02 10:20:01+00:00,1633170001,20.3,,,,,,,,,,8.37,0.1172,,1.4143,-0.5535,-1.107
2021-10-02 10:40:01+00:00,1633171201,20.2,,,,,,,,,,10.0566666666667,0.140866666666667,,1.416,-0.4034,-0.8068
2021-10-02 11:00:02+00:00,1633172402,20.07,,,,,,,,,,11.7033333333333,0.163966666666667,,1.4352,-0.1703,-0.3406
2021-10-02 11:20:02+00:00,1633173602,20.02,,,,,,,,,,13.37,0.187266666666667,,1.456,-0.049,-0.098
2021-10-02 11:40:01+00:00,1633174801,19.95,,,,,,,,,,13.3633333333333,0.187166666666667,,1.4704,-0.0454,-0.0908
2021-10-02 12:20:02+00:00,1633177202,19.87,,,,,,,,,,14.64,0.205066666666667,,1.488,-0.0459,-0.0918
2021-10-02 12:40:02+00:00,1633178402,19.86,,,,,,,,,,12.14,0.170066666666667,,1.4912,0.0083,0.0166
2021-10-02 13:00:02+00:00,1633179602,19.84,,,,,,,,,,10.4666666666667,0.1466,,1.4928,-0.0055,-0.011
2021-10-02 13:20:01+00:00,1633180801,19.83,,,,,,,,,,8.85,0.123933333333333,,1.4928,0.0293,0.0586
2021-10-02 13:40:01+00:00,1633182001,19.81,,,,,,,,,,9.37,0.131233333333333,,1.4944,0.0027,0.0054
2021-10-02 14:00:02+00:00,1633183202,19.81,,,,,,,,,,7.72333333333333,0.108266666666667,,1.496,0.042,0.084
2021-10-02 14:20:01+00:00,1633184401,19.81,,,,,,,,,,7.39,0.103533333333333,,1.5008,0.0309,0.0618
2021-10-02 14:40:02+00:00,1633185602,19.82,,,,,,,,,,7.03666666666667,0.0985666666666666,,1.504,0.0408,0.0816
2021-10-02 15:00:02+00:00,1633186802,19.8,,,,,,,,,,12.1666666666667,0.170433333333333,,1.5056,0.0352,0.0704
2021-10-02 15:20:01+00:00,1633188001,19.8,,,,,,,,,,29.92,0.419066666666667,,1.5072,0.0677,0.1354
2021-10-02 15:40:01+00:00,1633189201,19.82,,,,,,,,,,32.1866666666667,0.450833333333333,,1.5072,0.0494,0.0988
2021-10-02 16:00:02+00:00,1633190402,19.83,,,,,,,,,,37.4733333333333,0.5249,,1.5104,0.0481,0.0962
2021-10-02 16:20:02+00:00,1633191602,19.84,,,,,,,,,,40.8866666666667,0.5727,,1.5104,0.0806,0.1612
2021-10-02 16:40:01+00:00,1633192801,19.88,,,,,,,,,,42.4333333333333,0.594366666666667,,1.5104,0.0481,0.0962
2021-10-02 17:00:02+00:00,1633194002,19.87,,,,,,,,,,42.85,0.6002,,1.512,0.0722,0.1444
2021-10-02 17:20:01+00:00,1633195201,19.88,,,,,,,,,,42.8333333333333,0.599966666666667,,1.512,0.0807,0.1614
2021-10-02 17:40:01+00:00,1633196401,19.96,,,,,,,,,,42.8833333333333,0.600666666666667,,1.512,0.0354,0.0708
2021-10-02 18:00:02+00:00,1633197602,20.06,,,,,,,,,,41.1366666666667,0.5762,,1.5104,0.0452,0.0904
2021-10-02 18:20:01+00:00,1633198801,20.17,,,,,,,,,,39.83,0.557866666666667,,1.5088,0.0339,0.0678
2021-10-02 18:40:01+00:00,1633200001,20.33,,,,,,,,,,43.1266666666667,0.604066666666667,,1.5088,0.0466,0.0932
2021-10-02 19:00:01+00:00,1633201201,20.48,,,,,,,,,,43.8066666666667,0.613633333333333,,1.5088,0.0014,0.0028
2021-10-02 19:20:01+00:00,1633202401,20.66,,,,,,,,,,45.2733333333333,0.6342,,1.5088,0.065,0.13
2021-10-02 19:40:01+00:00,1633203601,21.08,,,,,,,,,,44.01,0.6164,,1.5088,0.007,0.014
2021-10-02 20:00:02+00:00,1633204802,21.92,,,,,,,,,,45.15,0.6324,,1.5104,0.0084,0.0168
2021-10-02 20:20:02+00:00,1633206002,22.18,,,,,,,,,,43.72,0.612366666666667,,1.5088,-0.0084,-0.0168
2021-10-02 20:40:02+00:00,1633207202,22.19,,,,,,,,,,43.1833333333333,0.604866666666667,,1.5056,-0.0141,-0.0282
2021-10-02 21:00:01+00:00,1633208401,22.68,,,,,,,,,,44.3266666666667,0.6209,,1.5072,0.0127,0.0254
2021-10-02 21:20:01+00:00,1633209601,22.99,,,,,,,,,,43.12,0.603933333333333,,1.5104,0.0084,0.0168
2021-10-02 21:40:01+00:00,1633210801,22.6,,,,,,,,,,42.4133333333333,0.5941,,1.5088,0.0212,0.0424
2021-10-02 22:00:01+00:00,1633212001,22.75,,,,,,,,,,37.7733333333333,0.529066666666667,,1.5088,0.007,0.014
2021-10-02 22:20:01+00:00,1633213201,22.7,,,,,,,,,,40.4333333333333,0.566333333333333,,1.512,0.0099,0.0198
2021-10-02 22:40:01+00:00,1633214401,22.66,,,,,,,,,,41.8933333333333,0.586766666666667,,1.5136,-0.0042,-0.0084
2021-10-02 23:00:01+00:00,1633215601,22.69,,,,,,,,,,44.7666666666667,0.627033333333333,,1.5152,-0.0014,-0.0028
2021-10-02 23:20:01+00:00,1633216801,22.7,,,,,,,,,,45.55,0.638033333333333,,1.5168,0.0227,0.0454
2021-10-02 23:40:01+00:00,1633218001,22.69,,,,,,,,,,46.3233333333333,0.648866666666667,,1.5168,0.0156,0.0312
2021-10-03 00:00:02+00:00,1633219202,22.63,,,,,,,,,,48.1533333333333,0.674466666666667,,1.5168,0.0127,0.0254
2021-10-03 00:20:01+00:00,1633220401,22.42,,,,,,,,,,47.5366666666667,0.665766666666667,,1.5184,0,0
2021-10-03 00:40:02+00:00,1633221602,22.49,,,,,,,,,,48.43,0.678333333333333,,1.52,0.0455,0.091
2021-10-03 01:00:01+00:00,1633222801,22.6,,,,,,,,,,49.2933333333333,0.690433333333333,,1.5216,0.0342,0.0684
2021-10-03 01:20:02+00:00,1633224002,22.36,,,,,,,,,,55.62,0.779033333333333,,1.528,0.0472,0.0944
2021-10-03 01:40:02+00:00,1633225202,22.59,,,,,,,,,,55.2166666666667,0.7734,,1.5328,0.0833,0.1666
2021-10-03 02:00:01+00:00,1633226401,22.68,,,,,,,,,,46.4033333333333,0.65,,1.536,0.1051,0.2102
2021-10-03 02:20:01+00:00,1633227601,22.84,,,,,,,,,,47.6733333333333,0.667766666666667,,1.5392,0.1053,0.2106
2021-10-03 02:40:02+00:00,1633228802,22.85,,,,,,,,,,42.87,0.600466666666667,,1.5456,0.1116,0.2232
2021-10-03 03:00:01+00:00,1633230001,22.86,,,,,,,,,,41.8533333333333,0.586233333333333,,1.552,0.0655,0.131
2021-10-03 03:20:01+00:00,1633231201,22.78,,,,,,,,,,50.5866666666667,0.708533333333333,,1.5551,0.086,0.172
2021-10-03 03:40:02+00:00,1633232402,22.73,,,,,,,,,,50.6466666666667,0.7094,,1.5568,0.108,0.216
2021-10-03 04:00:02+00:00,1633233602,22.6,,,,,,,,,,51.05,0.715066666666667,,1.5584,0.0847,0.1694
2021-10-03 04:20:01+00:00,1633234801,22.46,,,,,,,,,,54.1933333333333,0.759066666666667,,1.5584,0.0906,0.1812
2021-10-03 04:40:02+00:00,1633236002,22.34,,,,,,,,,,55.49,0.777233333333333,,1.56,0.0936,0.1872
2021-10-03 05:00:02+00:00,1633237202,22.25,,,,,,,,,,56.3966666666667,0.789966666666666,,1.56,0.0687,0.1374
2021-10-03 05:20:01+00:00,1633238401,22.24,,,,,,,,,,57.7266666666667,0.808566666666667,,1.5584,0.0804,0.1608
2021-10-03 05:40:01+00:00,1633239601,22.45,,,,,,,,,,57.9433333333333,0.811566666666667,,1.5584,0.0204,0.0408
2021-10-03 06:00:01+00:00,1633240801,22.47,,,,,,,,,,59.1933333333333,0.829066666666667,,1.5568,0.0525,0.105
2021-10-03 06:20:01+00:00,1633242001,22.44,,,,,,,,,,56.6233333333333,0.793133333333333,,1.5568,0.0277,0.0554
2021-10-03 06:40:01+00:00,1633243201,22.39,,,,,,,,,,61.13,0.8562,,1.5568,0.0014,0.0028
2021-10-03 07:00:01+00:00,1633244401,22.32,,,,,,,,,,64.0066666666667,0.8965,,1.5568,0,0
2021-10-03 07:20:02+00:00,1633245602,22.26,,,,,,,,,,64.43,0.9024,,1.5568,0.0277,0.0554
2021-10-03 07:40:01+00:00,1633246801,22.21,,,,,,,,,,63.3666666666667,0.887566666666667,,1.5568,-0.0073,-0.0146
2021-10-03 08:20:02+00:00,1633249202,22.04,,,,,,,,,,56.0133333333333,0.784533333333333,,1.5551,-0.016,-0.032
2021-10-03 08:40:01+00:00,1633250401,21.97,,,,,,,,,,53.2833333333333,0.746333333333333,,1.5456,-0.2217,-0.4434
2021-10-03 09:00:01+00:00,1633251601,19.75,,,,,,,,,,26.5,0.371166666666667,,1.5072,-0.4602,-0.9204
2021-10-03 09:20:02+00:00,1633252802,19.72,,,,,,,,,,21.8733333333333,0.306366666666667,,1.472,-0.5358,-1.0716
2021-10-03 09:40:01+00:00,1633254001,20.23,,,,,,,,,,15.48,0.216766666666667,,1.4431,-0.5613,-1.1226
2021-10-03 10:00:02+00:00,1633255202,20.37,,,,,,,,,,12.32,0.1726,,1.4223,-0.5395,-1.079
2021-10-03 10:20:01+00:00,1633256401,20.48,,,,,,,,,,10.6833333333333,0.149633333333333,,1.4032,-0.5385,-1.077
2021-10-03 10:40:02+00:00,1633257602,20.61,,,,,,,,,,9.10333333333333,0.1275,,1.392,-0.5236,-1.0472
2021-10-03 11:00:01+00:00,1633258801,20.64,,,,,,,,,,10.0066666666667,0.140166666666667,,1.3824,-0.4889,-0.9778
2021-10-03 11:20:01+00:00,1633260001,20.55,,,,,,,,,,9.46666666666667,0.1326,,1.4016,-0.2931,-0.5862
2021-10-03 11:40:02+00:00,1633261202,20.42,,,,,,,,,,8.99333333333333,0.125966666666667,,1.4287,-0.0173,-0.0346
2021-10-03 12:00:01+00:00,1633262401,20.38,,,,,,,,,,11.11,0.155633333333333,,1.4384,-0.0941,-0.1882
2021-10-03 12:20:02+00:00,1633263602,20.34,,,,,,,,,,13.19,0.1848,,1.4512,-0.042,-0.084
2021-10-03 12:40:01+00:00,1633264801,20.3,,,,,,,,,,14.22,0.199133333333333,,1.456,-0.0177,-0.0354
2021-10-03 13:00:01+00:00,1633266001,20.27,,,,,,,,,,15.76,0.2208,,1.464,0,0
2021-10-03 13:20:01+00:00,1633267201,20.21,,,,,,,,,,13.8066666666667,0.193366666666667,,1.4672,-0.0137,-0.0274
2021-10-03 13:40:01+00:00,1633268401,20.17,,,,,,,,,,,,,1.4688,0.0261,0.0522
2021-10-03 14:00:01+00:00,1633269601,20.13,,,,,,,,,,,,,1.472,0.0509,0.1018
2021-10-03 14:20:02+00:00,1633270802,20.11,,,,,,,,,,,,,1.472,0.033,0.066
2021-10-03 14:40:01+00:00,1633272001,20.11,,,,,,,,,,12.2466666666667,0.171566666666667,,1.4704,0.0536,0.1072
2021-10-03 15:00:02+00:00,1633273202,20.13,,,,,,,,,,10.02,0.140366666666667,,1.4816,0.0568,0.1136
2021-10-03 15:20:01+00:00,1633274401,20.14,,,,,,,,,,13.1,0.183433333333333,,1.4832,0.0319,0.0638
2021-10-03 15:40:02+00:00,1633275602,20.18,,,,,,,,,,12.5766666666667,0.176166666666667,,1.488,0.064,0.128
2021-10-03 16:00:01+00:00,1633276801,20.26,,,,,,,,,,10.8233333333333,0.151566666666667,,1.4896,0.0488,0.0976
2021-10-03 16:20:01+00:00,1633278001,20.29,,,,,,,,,,10.7766666666667,0.150933333333333,,1.4928,0.0601,0.1202
2021-10-03 16:40:01+00:00,1633279201,20.35,,,,,,,,,,11.3433333333333,0.1589,,1.4976,0.0701,0.1402
2021-10-03 17:00:02+00:00,1633280402,20.45,,,,,,,,,,11.1733333333333,0.156466666666667,,1.5072,0.0607,0.1214
2021-10-03 17:20:01+00:00,1633281601,20.44,,,,,,,,,,13.6,0.1905,,1.5072,0.0409,0.0818
2021-10-03 17:40:02+00:00,1633282802,20.45,,,,,,,,,,22.92,0.321033333333333,,1.5072,0.0903,0.1806
2021-10-03 18:00:02+00:00,1633284002,20.43,,,,,,,,,,34.4966666666667,0.483233333333333,,1.5072,0.1143,0.2286
2021-10-03 18:20:02+00:00,1633285202,20.47,,,,,,,,,,43.61,0.610833333333333,,1.4992,0.0491,0.0982
2021-10-03 18:40:02+00:00,1633286402,20.48,,,,,,,,,,45.72,0.6404,,1.496,0.0616,0.1232
2021-10-03 19:00:02+00:00,1633287602,20.66,,,,,,,,,,50.09,0.7016,,1.4928,0.0377,0.0754
2021-10-03 19:20:01+00:00,1633288801,20.76,,,,,,,,,,50.4333333333333,0.706433333333333,,1.4912,0.0432,0.0864
2021-10-03 19:40:01+00:00,1633290001,21.05,,,,,,,,,,54.0433333333333,0.757033333333333,,1.4864,0.0292,0.0584
2021-10-03 20:00:01+00:00,1633291201,21.26,,,,,,,,,,56.0133333333333,0.784533333333333,,1.4848,0.0111,0.0222
2021-10-03 20:20:01+00:00,1633292401,21.77,,,,,,,,,,54.7166666666667,0.7664,,1.4832,-0.0249,-0.0498
2021-10-03 20:40:01+00:00,1633293601,22.02,,,,,,,,,,51.56,0.7222,,1.4848,0.0083,0.0166
2021-10-03 21:00:01+00:00,1633294801,22.06,,,,,,,,,,50.06,0.701133333333333,,1.4832,0,0
2021-10-03 21:20:01+00:00,1633296001,22.06,,,,,,,,,,50.4966666666667,0.707333333333333,,1.4816,-0.0027,-0.0054
2021-10-03 21:40:01+00:00,1633297201,22.12,,,,,,,,,,52.5766666666667,0.736433333333333,,1.4816,-0.0263,-0.0526
2021-10-03 22:00:02+00:00,1633298402,22.24,,,,,,,,,,42.72,0.5984,,1.4832,-0.0138,-0.0276
2021-10-03 22:20:02+00:00,1633299602,22.24,,,,,,,,,,41.1466666666667,0.576333333333333,,1.4832,0.0083,0.0166
2021-10-03 22:40:01+00:00,1633300801,22.27,,,,,,,,,,40.1033333333333,0.561766666666667,,1.4832,0.0083,0.0166
2021-10-03 23:00:01+00:00,1633302001,22.22,,,,,,,,,,42.4,0.593866666666667,,1.4864,-0.064,-0.128
2021-10-03 23:20:01+00:00,1633303201,22.15,,,,,,,,,,46.1266666666667,0.646066666666667,,1.4896,0.0027,0.0054
2021-10-03 23:40:01+00:00,1633304401,22.31,,,,,,,,,,46.4166666666667,0.650166666666667,,1.4912,0.0181,0.0362
2021-10-04 00:00:02+00:00,1633305602,22.29,,,,,,,,,,47.85,0.6702,,1.4928,-0.0069,-0.0138
2021-10-04 00:20:02+00:00,1633306802,22.23,,,,,,,,,,51.1966666666667,0.717066666666667,,1.4944,-0.0027,-0.0054
2021-10-04 00:40:02+00:00,1633308002,22.21,,,,,,,,,,48.8933333333333,0.684866666666667,,1.4944,-0.0111,-0.0222
2021-10-04 01:00:02+00:00,1633309202,22.12,,,,,,,,,,46.3433333333333,0.649166666666666,,1.496,0.0308,0.0616
2021-10-04 01:20:01+00:00,1633310401,22.05,,,,,,,,,,44.1333333333333,0.6182,,1.496,0.0294,0.0588
2021-10-04 01:40:01+00:00,1633311601,22.04,,,,,,,,,,40.4233333333333,0.566233333333333,,1.4992,0.0912,0.1824
2021-10-04 02:00:01+00:00,1633312801,22.27,,,,,,,,,,32.9666666666667,0.461766666666667,,1.5056,0.0521,0.1042
2021-10-04 02:20:01+00:00,1633314001,22.29,,,,,,,,,,34.5466666666667,0.4839,,1.5136,0.0794,0.1588
2021-10-04 02:40:01+00:00,1633315201,22.54,,,,,,,,,,47.5833333333333,0.6665,,1.5168,0.0923,0.1846
2021-10-04 03:00:01+00:00,1633316401,22.74,,,,,,,,,,65.4066666666667,0.916166666666667,,1.5216,0.104,0.208
2021-10-04 03:20:01+00:00,1633317601,22.75,,,,,,,,,,62.6333333333333,0.877266666666667,,1.5296,0.1061,0.2122
2021-10-04 03:40:01+00:00,1633318801,22.78,,,,,,,,,,57.3233333333333,0.8029,,1.5344,0.105,0.21
2021-10-04 04:00:01+00:00,1633320001,22.74,,,,,,,,,,62.4,0.874,,1.5376,0.1182,0.2364
2021-10-04 04:20:02+00:00,1633321202,22.65,,,,,,,,,,60.8166666666667,0.851866666666667,,1.5392,0.1197,0.2394
2021-10-04 04:40:02+00:00,1633322402,22.54,,,,,,,,,,63.1366666666667,0.884333333333333,,1.5408,0.1141,0.2282
2021-10-04 05:00:02+00:00,1633323602,22.37,,,,,,,,,,64.0366666666667,0.896933333333333,,1.5424,0.0867,0.1734
2021-10-04 05:20:02+00:00,1633324802,22.2,,,,,,,,,,66.7166666666667,0.9345,,1.5456,0.1333,0.2666
2021-10-04 05:40:01+00:00,1633326001,22.03,,,,,,,,,,66.84,0.936266666666666,,1.5472,0.1102,0.2204
2021-10-04 06:00:01+00:00,1633327201,21.86,,,,,,,,,,69.54,0.974033333333333,,1.544,0.0767,0.1534